Weather History for Marshalltown, IA

Change the Weather History Date:

Sunday, May 25, 2014

  Actual Average Record
Temperature  
Mean Temperature 67 °F 63 °F  
Max Temperature 77 °F 74 °F 86 °F (2008)
Min Temperature 56 °F 53 °F 42 °F (2002)
Degree Days  
Heating Degree Days 0 4  
Month to date heating degree days 171 180  
Since 1 July heating degree days 7908 6965  
Cooling Degree Days 2 2  
Month to date cooling degree days 22 29  
Year to date cooling degree days 27 33  
Growing Degree Days 16 (Base 50)    
Moisture  
Dew Point 60 °F    
Average Humidity 78    
Maximum Humidity 84    
Minimum Humidity 72    
Precipitation  
Precipitation 0.03 in 0.13 in 1.35 in (2011)
Month to date precipitation 2.00 3.25  
Sea Level Pressure  
Sea Level Pressure 30.01 in    
Wind  
Wind Speed 10 mph (SSE)    
Max Wind Speed 21 mph    
Max Gust Speed 26 mph    
Visibility 10 miles    
Events Rain , Thunderstorm    
T = Trace of Precipitation, MM = Missing Value Source: NWS Daily Summary

Daily Weather History Graph

Daily Weather History Graph

Search for Another Location

Airport:

Trip Planner

Search our weather history database for the weather conditions in past years. The results will help you decide how hot, cold, wet, or windy it might be!

Date:

Astronomy

May. 25, 2014 Rise Set
Actual Time 5:42 AM CDT 8:35 PM CDT
Civil Twilight 5:09 AM CDT 9:08 PM CDT
Nautical Twilight 4:27 AM CDT 9:50 PM CDT
Astronomical Twilight 3:38 AM CDT 10:39 PM CDT
Moon 3:50 AM CDT (5/25) 5:33 PM CDT (5/25)
Length of Visible Light 15h 59m
Length of Day
14h 53m
Waning Crescent, 10% of the Moon is Illuminated
May 25
Waning Crescent
May 28
New
Jun 5
First Quarter
Jun 12
Full
Jun 19
Last Quarter

Hourly Weather History & Observations

Time (CDT) Temp. Dew Point Humidity Pressure Visibility Wind Dir Wind Speed Gust Speed Precip Events Conditions
1:53 AM 57.9 °F 48.9 °F 72% 30.06 in 10.0 mi ESE 4.6 mph - N/A   Clear
2:53 AM 57.0 °F 48.9 °F 74% 30.06 in 10.0 mi ESE 4.6 mph - N/A   Clear
4:53 AM 59.0 °F 52.0 °F 78% 30.05 in 10.0 mi ESE 5.8 mph - N/A   Overcast
5:53 AM 59.0 °F 53.1 °F 81% 30.04 in 10.0 mi ESE 5.8 mph - N/A   Overcast
7:53 AM 63.0 °F 54.0 °F 72% 30.05 in 10.0 mi SE 9.2 mph - N/A   Overcast
8:53 AM 64.9 °F 55.0 °F 70% 30.06 in 10.0 mi SE 10.4 mph - N/A   Overcast
10:24 AM 66.9 °F 60.1 °F 79% 30.07 in 10.0 mi South 11.5 mph - N/A   Overcast
10:53 AM 66.0 °F 60.1 °F 81% 30.06 in 10.0 mi SSE 17.3 mph - 0.00 in   Overcast
11:28 AM 64.9 °F 61.0 °F 87% 30.06 in 7.0 mi SE 15.0 mph - N/A   Overcast
11:36 AM 64.0 °F 59.0 °F 84% 30.06 in 8.0 mi SSE 16.1 mph - N/A   Overcast
11:49 AM 64.4 °F 59.0 °F 83% 30.06 in 10.0 mi SSE 16.1 mph - N/A   Overcast
11:53 AM 64.0 °F 59.0 °F 84% 30.06 in 10.0 mi SSE 16.1 mph - 0.00 in Rain Light Rain
12:53 PM 66.0 °F 60.1 °F 81% 30.05 in 10.0 mi SSE 16.1 mph 25.3 mph 0.00 in   Mostly Cloudy
1:10 PM 66.9 °F 60.1 °F 79% 30.04 in 10.0 mi SE 17.3 mph - N/A   Mostly Cloudy
1:53 PM 68.0 °F 61.0 °F 78% 30.02 in 10.0 mi SSE 16.1 mph - N/A   Mostly Cloudy
2:53 PM 72.0 °F 63.0 °F 73% 29.99 in 10.0 mi SE 17.3 mph - N/A   Mostly Cloudy
3:53 PM 73.0 °F 64.0 °F 73% 29.98 in 10.0 mi SSE 11.5 mph - N/A   Overcast
4:53 PM 73.9 °F 64.0 °F 71% 29.97 in 10.0 mi SSE 12.7 mph - N/A   Overcast
5:53 PM 75.9 °F 66.0 °F 71% 29.95 in 10.0 mi SSE 11.5 mph - N/A   Mostly Cloudy
6:53 PM 75.0 °F 66.9 °F 76% 29.94 in 10.0 mi South 5.8 mph - N/A   Clear
7:53 PM 73.9 °F 66.9 °F 79% 29.93 in 10.0 mi ESE 4.6 mph - N/A   Clear
8:53 PM 71.1 °F 66.0 °F 84% 29.94 in 10.0 mi ESE 5.8 mph - N/A   Partly Cloudy
9:10 PM 70.0 °F 66.9 °F 90% 29.96 in 5.0 mi South 4.6 mph - 0.02 in Rain , Thunderstorm Light Rain
9:25 PM 68.0 °F 64.0 °F 87% 29.98 in 10.0 mi South 8.1 mph - 0.02 in   Scattered Clouds
9:53 PM 66.9 °F 64.0 °F 90% 29.98 in 10.0 mi SSW 8.1 mph - 0.02 in Rain Light Rain
10:53 PM 66.0 °F 63.0 °F 90% 29.99 in 10.0 mi South 6.9 mph - 0.01 in Rain Light Rain
11:53 PM 64.9 °F 62.1 °F 90% 29.98 in 10.0 mi SSW 4.6 mph - 0.00 in   Partly Cloudy